sat.trackr.live / text

‹ back to catalog

CARTOSAT-2A

NORAD 32783 · 2008-021A

PAYLOAD ACTIVE UNKNOWN

§ Identity

Operator
Country
IND
Launch date
2008-04-28
Launch site
SRILR
Launch vehicle
Mass (kg)
RCS (m²)
2.32

Purposes: earth_obs

External: N2YO · Heavens-Above · Gunter

§ Orbital elements

Epoch: 2026-09-10T03:20:47.360256Z

Period
97.34 min
Inclination
97.7567°
Eccentricity
0.0011350
Mean motion
14.79322118 rev/d
Perigee alt
623.5 km
Apogee alt
639.4 km
Semi-major
7,009.6 km
B*
1.8958e-5
RAAN
298.9174°
Arg perigee
188.3955°
Mean anomaly
171.7069°
Rev number
99,136

§ Raw data

CARTOSAT-2A1 32783U 08021A   26253.13943704  .00000091  00000+0  18958-4 0  99972 32783  97.7567 298.9174 0011350 188.3955 171.7069 14.79322118991362

JSON: /api/v1/satellites/32783 · /tle

For live sub-satellite position, see the globe view (requires WebGL).

§ Visibility from observer

Set your observer location to see the next 7 days of passes ≥ 10°. The values pass through the URL so the page stays shareable.

No JS? Fill the form by hand. The geolocation button needs JavaScript.

§ Radio — SatNOGS DB

ModeDescriptionDownlinkUplink
CW Beacon 2.246 GHz

1 transmitter · refreshed weekly from db.satnogs.org